Location: Devargunta
(16.7631°N, 80.9077°E)
Time: 19:53:51
(UTC+00:00)

ATLAS 3B R/B - Pass Details

Date: 19 January 2021
Orbit: 1006 x 1189 km, 63.8° (Epoch: 26 February)

Event Time Altitude Azimuth Distance (km) Brightness Sun altitude
Rises 12:31:41 0° 346° (NNW) 3,934 5.6 -2.2°
Reaches altitude 10° 12:34:29 10° 352° (N) 3,002 4.9 -2.9°
Maximum altitude 12:41:17 45° 63° (ENE) 1,539 3.2 -4.4°
Drops below altitude 10° 12:48:18 10° 134° (SE) 3,094 4.9 -6.0°
Sets 12:51:12 0° 140° (SE) 4,066 5.5 -6.6°
